When you browse on this site, cookies collect data to enhance your experience and personalize the content and advertising you see.
Visit our Privacy Policy to learn more. By continuing to use the site, you agree to this use of cookies and data.
  • In Portugal
  • List of Countries
  • For 7 days
  • Water Temperature
  • Satellite Maps
  • Weather Map
  • Weather Widgets
  • user-avatar
    Login

    Hourly Weather Velikaya Novoselka

    Today, 17 July, Wednesday

    Time Temperature Precipitation Wind Pressure Humidity
    00:00 +18°C° 0 mm 1 mps 745 mmHg 89%
    01:00 +18°C° 0 mm 1 mps 745 mmHg 90%
    02:00 +16°C° 0 mm 2 mps 745 mmHg 91%
    03:00 +17°C° 0 mm 2 mps 745 mmHg 90%
    04:00 +17°C° 0 mm 2 mps 746 mmHg 89%
    05:00 +17°C° 0 mm 2 mps 746 mmHg 88%
    06:00 +19°C° 0 mm 2 mps 746 mmHg 81%
    07:00 +20°C° 0 mm 2 mps 746 mmHg 75%
    08:00 +22°C° 0 mm 3 mps 746 mmHg 68%
    09:00 +24°C° 0.1 mm 3 mps 746 mmHg 62%
    10:00 +26°C° 0.1 mm 3 mps 746 mmHg 56%
    11:00 +27°C° 0.1 mm 3 mps 746 mmHg 50%
    12:00 +27°C° 0.2 mm 3 mps 746 mmHg 49%
    13:00 +27°C° 0.2 mm 3 mps 746 mmHg 49%
    14:00 +27°C° 0.2 mm 3 mps 746 mmHg 49%
    15:00 +27°C° 0 mm 3 mps 746 mmHg 49%
    16:00 +27°C° 0 mm 2 mps 746 mmHg 48%
    17:00 +27°C° 0 mm 2 mps 746 mmHg 48%
    18:00 +25°C° 0 mm 2 mps 746 mmHg 51%
    19:00 +24°C° 0 mm 2 mps 746 mmHg 54%
    20:00 +23°C° 0 mm 2 mps 746 mmHg 57%
    21:00 +21°C° 0 mm 2 mps 746 mmHg 59%
    22:00 +21°C° 0 mm 1 mps 747 mmHg 62%
    23:00 +20°C° 0 mm 1 mps 747 mmHg 64%

    Tomorrow, 18 July, Thursday

    Time Temperature Precipitation Wind Pressure Humidity
    00:00 +19°C° 0 mm 1 mps 747 mmHg 66%
    01:00 +16°C° 0 mm 0 mps 747 mmHg 68%
    02:00 +16°C° 0 mm 0 mps 747 mmHg 70%
    03:00 +16°C° 0 mm 0 mps 747 mmHg 70%
    04:00 +17°C° 0 mm 0 mps 747 mmHg 70%
    05:00 +17°C° 0 mm 0 mps 747 mmHg 70%
    06:00 +19°C° 0 mm 0 mps 747 mmHg 64%
    07:00 +23°C° 0 mm 1 mps 747 mmHg 58%
    08:00 +25°C° 0 mm 1 mps 747 mmHg 52%
    09:00 +26°C° 0 mm 2 mps 748 mmHg 48%
    10:00 +27°C° 0 mm 2 mps 748 mmHg 44%
    11:00 +28°C° 0 mm 3 mps 748 mmHg 40%
    12:00 +28°C° 0 mm 3 mps 748 mmHg 39%
    13:00 +29°C° 0 mm 3 mps 748 mmHg 39%
    14:00 +29°C° 0 mm 3 mps 748 mmHg 38%
    15:00 +28°C° 0 mm 3 mps 748 mmHg 40%
    16:00 +28°C° 0 mm 3 mps 748 mmHg 41%
    17:00 +28°C° 0 mm 3 mps 748 mmHg 43%
    18:00 +26°C° 0 mm 3 mps 748 mmHg 49%
    19:00 +24°C° 0 mm 2 mps 748 mmHg 54%
    20:00 +21°C° 0 mm 2 mps 749 mmHg 60%
    21:00 +20°C° 0 mm 2 mps 749 mmHg 61%
    22:00 +20°C° 0 mm 1 mps 749 mmHg 63%
    23:00 +19°C° 0 mm 1 mps 750 mmHg 64%

    Day after tomorrow, 19 July, Friday

    Time Temperature Precipitation Wind Pressure Humidity
    00:00 +19°C° 0 mm 1 mps 750 mmHg 66%
    01:00 +18°C° 0 mm 1 mps 750 mmHg 67%
    02:00 +18°C° 0 mm 1 mps 750 mmHg 69%
    03:00 +18°C° 0 mm 1 mps 750 mmHg 70%
    04:00 +18°C° 0 mm 1 mps 750 mmHg 70%
    05:00 +18°C° 0 mm 1 mps 750 mmHg 71%
    06:00 +20°C° 0 mm 1 mps 751 mmHg 65%
    07:00 +22°C° 0 mm 1 mps 751 mmHg 58%
    08:00 +24°C° 0 mm 1 mps 751 mmHg 52%
    09:00 +25°C° 0 mm 2 mps 751 mmHg 48%
    10:00 +26°C° 0 mm 2 mps 751 mmHg 44%
    11:00 +28°C° 0 mm 3 mps 751 mmHg 39%
    12:00 +28°C° 0 mm 3 mps 751 mmHg 38%
    13:00 +29°C° 0 mm 3 mps 751 mmHg 36%
    14:00 +29°C° 0 mm 3 mps 751 mmHg 34%
    15:00 +29°C° 0 mm 3 mps 751 mmHg 35%
    16:00 +29°C° 0 mm 3 mps 751 mmHg 37%
    17:00 +28°C° 0 mm 3 mps 751 mmHg 38%
    18:00 +26°C° 0 mm 3 mps 751 mmHg 44%
    19:00 +24°C° 0 mm 2 mps 752 mmHg 50%
    20:00 +21°C° 0 mm 2 mps 752 mmHg 56%
    21:00 +20°C° 0 mm 2 mps 752 mmHg 59%
    22:00 +20°C° 0 mm 2 mps 752 mmHg 62%
    23:00 +20°C° 0 mm 1 mps 753 mmHg 65%

    20 July, Saturday

    Time Temperature Precipitation Wind Pressure Humidity
    00:00 +19°C° 0 mm 1 mps 753 mmHg 66%
    01:00 +19°C° 0 mm 1 mps 753 mmHg 67%
    02:00 +19°C° 0 mm 1 mps 753 mmHg 69%
    03:00 +19°C° 0 mm 1 mps 753 mmHg 69%
    04:00 +19°C° 0 mm 1 mps 753 mmHg 70%
    05:00 +19°C° 0 mm 1 mps 753 mmHg 70%
    06:00 +21°C° 0 mm 1 mps 754 mmHg 64%
    07:00 +23°C° 0 mm 1 mps 754 mmHg 57%
    08:00 +25°C° 0 mm 1 mps 754 mmHg 50%
    09:00 +27°C° 0 mm 1 mps 754 mmHg 45%
    10:00 +28°C° 0 mm 1 mps 754 mmHg 40%
    11:00 +29°C° 0 mm 1 mps 754 mmHg 35%
    12:00 +30°C° 0 mm 1 mps 754 mmHg 33%
    13:00 +30°C° 0 mm 1 mps 754 mmHg 31%
    14:00 +31°C° 0 mm 1 mps 754 mmHg 29%
    15:00 +31°C° 0 mm 1 mps 754 mmHg 30%
    16:00 +30°C° 0 mm 1 mps 754 mmHg 30%
    17:00 +30°C° 0 mm 1 mps 754 mmHg 31%
    18:00 +28°C° 0 mm 1 mps 754 mmHg 35%
    19:00 +26°C° 0 mm 1 mps 754 mmHg 40%
    20:00 +24°C° 0 mm 1 mps 754 mmHg 45%
    21:00 +23°C° 0 mm 2 mps 754 mmHg 47%
    22:00 +23°C° 0 mm 2 mps 754 mmHg 49%
    23:00 +21°C° 0 mm 2 mps 754 mmHg 51%

    21 July, Sunday

    Time Temperature Precipitation Wind Pressure Humidity
    00:00 +21°C° 0 mm 2 mps 754 mmHg 51%
    01:00 +20°C° 0 mm 2 mps 754 mmHg 52%
    02:00 +20°C° 0 mm 2 mps 753 mmHg 52%
    03:00 +20°C° 0 mm 2 mps 753 mmHg 53%
    04:00 +20°C° 0 mm 2 mps 753 mmHg 54%
    05:00 +21°C° 0 mm 1 mps 753 mmHg 55%
    06:00 +23°C° 0 mm 1 mps 753 mmHg 49%
    07:00 +26°C° 0 mm 1 mps 754 mmHg 44%
    08:00 +28°C° 0 mm 2 mps 754 mmHg 38%
    09:00 +29°C° 0 mm 2 mps 754 mmHg 36%
    10:00 +30°C° 0 mm 2 mps 754 mmHg 34%
    11:00 +31°C° 0 mm 2 mps 754 mmHg 31%
    12:00 +32°C° 0 mm 2 mps 753 mmHg 30%
    13:00 +32°C° 0 mm 2 mps 753 mmHg 29%
    14:00 +34°C° 0 mm 2 mps 753 mmHg 27%
    15:00 +32°C° 0 mm 2 mps 753 mmHg 30%
    16:00 +32°C° 0 mm 2 mps 753 mmHg 32%
    17:00 +31°C° 0 mm 3 mps 753 mmHg 35%
    18:00 +29°C° 0 mm 3 mps 753 mmHg 43%
    19:00 +27°C° 0 mm 3 mps 753 mmHg 51%
    20:00 +25°C° 0 mm 3 mps 753 mmHg 58%
    21:00 +24°C° 0 mm 3 mps 753 mmHg 63%
    22:00 +23°C° 0 mm 2 mps 753 mmHg 68%
    23:00 +21°C° 0 mm 2 mps 753 mmHg 72%

    22 July, Monday

    Time Temperature Precipitation Wind Pressure Humidity
    00:00 +20°C° 0 mm 2 mps 753 mmHg 75%
    01:00 +20°C° 0 mm 2 mps 753 mmHg 78%
    02:00 +20°C° 0 mm 2 mps 753 mmHg 80%
    03:00 +19°C° 0 mm 2 mps 753 mmHg 81%
    04:00 +19°C° 0 mm 2 mps 754 mmHg 81%
    05:00 +19°C° 0 mm 3 mps 754 mmHg 82%
    06:00 +21°C° 0 mm 3 mps 754 mmHg 73%
    07:00 +25°C° 0 mm 3 mps 754 mmHg 65%
    08:00 +27°C° 0 mm 3 mps 754 mmHg 56%
    09:00 +28°C° 0 mm 3 mps 754 mmHg 50%
    10:00 +29°C° 0 mm 3 mps 754 mmHg 45%
    11:00 +30°C° 0 mm 3 mps 754 mmHg 39%
    12:00 +30°C° 0 mm 3 mps 754 mmHg 36%
    13:00 +31°C° 0 mm 3 mps 753 mmHg 33%
    14:00 +33°C° 0 mm 3 mps 753 mmHg 30%
    15:00 +31°C° 0 mm 3 mps 753 mmHg 31%
    16:00 +32°C° 0 mm 4 mps 753 mmHg 32%
    17:00 +32°C° 0 mm 4 mps 753 mmHg 32%
    18:00 +28°C° 0 mm 3 mps 753 mmHg 39%
    19:00 +26°C° 0 mm 3 mps 753 mmHg 45%
    20:00 +24°C° 0 mm 3 mps 753 mmHg 52%
    21:00 +22°C° 0 mm 3 mps 753 mmHg 56%
    22:00 +21°C° 0 mm 2 mps 753 mmHg 60%
    23:00 +20°C° 0 mm 2 mps 753 mmHg 64%
    Show more